This demonstration page uses our WeatherBlox Daily Observations layout. Learn more.

Left ArrowRight Arrow

36.17497, -115.13722

Hourly Observations for January 23, 2017

Temp ( °F °C ) Dew Point ( °F °C ) Humidity (%) Winds ( mph kmh ) Pressure ( in mb ) Visibility ( mi km ) Precip ( " mm )
12:53 am 00:53 Cloudy with Light Rain 48 8.9 43 6.1 83 83 S 12 19 29.79 1009 10 16 N/A
1:53 am 01:53 Mostly Cloudy with Light Rain 48 8.9 43 6.1 83 83 SSE 16 26 29.77 1008 10 16 N/A
2:53 am 02:53 Cloudy with Light Rain 49 9.4 42 5.6 77 77 SSE 14 22 29.73 1007 10 16 N/A
3:53 am 03:53 Cloudy with Light Rain 48 8.9 43 6.1 83 83 SW 17 28 29.74 1007 6 10 0.09 2.29
4:53 am 04:53 Cloudy with Light Rain 49 9.4 32 undefined 52 52 WSW 31 50 29.73 1007 10 16 0.01 0.25
5:53 am 05:53 Mostly Cloudy with Light Rain 48 8.9 30 -1.1 50 50 WSW 20 31 29.75 1007 10 16 N/A
6:53 am 06:53 Sunny 47 8.3 30 -1.1 52 52 WSW 10 17 29.77 1008 10 16 N/A
7:53 am 07:53 Sunny 48 8.9 29 -1.7 48 48 WSW 16 26 29.78 1009 10 16 N/A
8:53 am 08:53 Sunny 50 10 30 -1.1 46 46 WSW 21 33 29.79 1009 10 16 N/A
9:53 am 09:53 Sunny 51 10.6 30 -1.1 44 44 WSW 28 44 29.79 1009 10 16 N/A
10:53 am 10:53 Sunny 52 11.1 30 -1.1 43 43 SW 29 46 29.76 1008 10 16 N/A
11:53 am 11:53 Sunny 50 10 30 -1.1 46 46 SW 30 48 29.71 1006 10 16 N/A
12:53 pm 12:53 Partly Cloudy 50 10 32 undefined 50 50 WNW 18 30 29.74 1007 10 16 N/A
1:53 pm 13:53 Sunny 52 11 30 -1 44 44 W 15 24 29.65 1004 10 16 N/A
2:53 pm 14:53 Sunny 50 10 29 -1.7 44 44 WSW 18 30 29.70 1006 10 16 N/A
3:53 pm 15:53 Sunny 50 10 28 -2.2 43 43 WSW 15 24 29.70 1006 10 16 N/A
4:53 pm 16:53 Mostly Sunny 49 9.4 28 -2.2 44 44 W 12 19 29.69 1006 10 16 N/A
5:53 pm 17:53 Mostly Cloudy 48 8.9 28 -2.2 46 46 W 7 11 29.70 1006 10 16 N/A
6:53 pm 18:53 Cloudy 47 8.3 30 -1.1 52 52 W 20 31 29.72 1007 10 16 N/A
7:53 pm 19:53 Cloudy 43 6.1 33 0.6 68 68 NW 15 24 29.75 1008 10 16 N/A
8:53 pm 20:53 Cloudy 42 5.6 32 undefined 68 68 NW 15 24 29.76 1008 10 16 N/A
9:53 pm 21:53 Cloudy 43 6.1 30 -1.1 60 60 NNW 15 24 29.77 1008 10 16 N/A
10:53 pm 22:53 Cloudy 43 6.1 31 -0.6 63 63 W 10 17 29.78 1008 10 16 N/A
11:53 pm 23:53 Cloudy 42 5.6 31 -0.6 65 65 NNW 10 17 29.78 1009 10 16 N/A

Powered by AerisWeather